[[[{"header":{"parameterUnit":"kt","parameterCategory":2,"dx":1,"dy":1,"la1":30.253999710083008,"la2":30.299108505249023,"lo1":-89.0895004272461,"lo2":-89.04439544677734,"nx":28,"ny":28,"refTime":"2022-10-16T21:00:00:Z","depth":"0","parameterNumber":2,"parameterNumberName":"U-component_of_CURRENTS"},"data":[-0.3822,-0.3114,-0.2936,-0.1972,-0.1664,-0.1015,-0.0775,-0.0448,-0.0211,0.0387,0.0675,0.0756,-0.0138,-0.1175,-0.1741,-0.1728,-0.1771,-0.1687,-0.1821,-0.196,-0.2012,-0.2062,-0.2105,-0.1575,-0.1575,-0.1555,-0.1555,-0.1555,-0.4366,-0.4042,-0.3595,-0.3097,-0.2588,-0.2669,-0.2243,-0.1913,-0.1344,-0.1022,-0.0569,-0.0409,-0.0674,-0.1278,-0.1874,-0.1868,-0.1889,-0.1895,-0.2008,-0.198,-0.2122,-0.2149,-0.1619,-0.1619,-0.1619,-0.162,-0.162,-0.162,-0.5251,-0.493,-0.4609,-0.4169,-0.3841,-0.3428,-0.3101,-0.2801,-0.2407,-0.1987,-0.2067,-0.1641,-0.2036,-0.2129,-0.2164,-0.2377,-0.2563,-0.234,-0.2444,-0.2553,-0.2513,-0.2861,-0.2279,-0.2282,-0.2285,-0.2287,-0.2289,0,-0.575,-0.5743,-0.5512,-0.5091,-0.4784,-0.4458,-0.4138,-0.4007,-0.3947,-0.3666,-0.3251,-0.3076,-0.3053,-0.2842,-0.2912,-0.2818,-0.3093,-0.2992,-0.3024,-0.2864,-0.3059,-0.2928,-0.3312,-0.2806,-0.2812,-0.2816,-0.282,-0.2822,-0.6196,-0.6115,-0.5953,-0.5702,-0.5625,-0.5409,-0.5111,-0.5175,-0.4865,-0.4746,-0.4411,-0.4287,-0.394,-0.364,-0.3613,-0.3427,-0.3532,-0.3141,-0.3252,-0.3374,-0.3395,-0.3524,-0.3489,-0.2888,-0.288,-0.2873,-0.2867,0,-0.6309,-0.6391,-0.6191,-0.6088,-0.6037,-0.586,-0.5634,-0.5353,-0.5422,-0.5017,-0.4939,-0.4874,-0.461,-0.4573,-0.4223,-0.4199,-0.3831,-0.3805,-0.3747,-0.3618,-0.3443,-0.3551,-0.3173,-0.3084,-0.3454,-0.3449,-0.3445,0,-0.6495,-0.6375,-0.6387,-0.6327,-0.6085,-0.6111,-0.5855,-0.5788,-0.5638,-0.5331,-0.5439,-0.5162,-0.5113,-0.4879,-0.4813,-0.4484,-0.4422,-0.4312,-0.4181,-0.4047,-0.4033,-0.3864,-0.3951,-0.4254,-0.4257,-0.426,-0.4262,0,-0.6572,-0.653,-0.6441,-0.6402,-0.629,-0.6215,-0.6126,-0.6009,-0.5856,-0.5709,-0.5546,-0.5429,-0.5257,-0.5085,-0.4964,-0.5041,-0.456,-0.4559,-0.4328,-0.4322,-0.3955,-0.3928,-0.3706,-0.4266,-0.4267,-0.4268,-0.4269,0,-0.6685,-0.6662,-0.6628,-0.6419,-0.6387,-0.6371,-0.6119,-0.6079,-0.5941,-0.5852,-0.5752,-0.5659,-0.5525,-0.5573,-0.5262,-0.5387,-0.5224,-0.5069,-0.5045,-0.4837,-0.4751,-0.4227,-0.4106,-0.4108,-0.4807,-0.4812,-0.4816,0,-0.6576,-0.6643,-0.6695,-0.66,-0.6534,-0.6454,-0.6402,-0.6318,-0.6213,-0.6051,-0.5959,-0.5795,-0.593,-0.581,-0.5713,-0.5487,-0.5344,-0.5559,-0.4934,-0.4918,-0.4793,-0.4758,-0.4549,-0.4204,-0.488,-0.4873,-0.4868,0,-0.6536,-0.6635,-0.6628,-0.6537,-0.6525,-0.6493,-0.648,-0.6357,-0.6234,-0.6216,-0.6007,-0.5999,-0.5927,-0.583,-0.5746,-0.5585,-0.5448,-0.5507,-0.5488,-0.5331,-0.4949,-0.486,-0.4808,-0.529,-0.5283,-0.5277,-0.4919,0,-0.6436,-0.6466,-0.6527,-0.656,-0.6545,-0.6527,-0.6475,-0.6435,-0.6321,-0.623,-0.61,-0.5984,-0.5791,-0.5808,-0.5757,-0.5617,-0.5558,-0.5452,-0.5257,-0.5328,-0.5176,-0.5138,-0.5527,-0.5523,-0.552,-0.5517,0,0,-0.6212,-0.6347,-0.6401,-0.6471,-0.6403,-0.6338,-0.6326,-0.6294,-0.6177,-0.6078,-0.6078,-0.5811,-0.5711,-0.5541,-0.5635,-0.5579,-0.5431,-0.5475,-0.5355,-0.5339,-0.5323,-0.5179,-0.5146,-0.5511,-0.5509,-0.5508,-0.5507,0,-0.6196,-0.6257,-0.6374,-0.637,-0.6363,-0.6287,-0.6305,-0.6225,-0.6146,-0.607,-0.5919,-0.5838,-0.5656,-0.5529,-0.5437,-0.5538,-0.5288,-0.5542,-0.5587,-0.5335,-0.5324,-0.5312,-0.5171,-0.5144,-0.5498,-0.5499,-0.5499,0,-0.6045,-0.6096,-0.6155,-0.6235,-0.6188,-0.6195,-0.6084,-0.6093,-0.6048,-0.5827,-0.5714,-0.5629,-0.545,-0.5387,-0.5344,-0.5251,-0.5106,-0.5202,-0.522,-0.5185,-0.4912,-0.4905,-0.4898,-0.4965,-0.4964,-0.4963,0,0,-0.5993,-0.6107,-0.6104,-0.6218,-0.6221,-0.6104,-0.6083,-0.6016,-0.5917,-0.5858,-0.5694,-0.5533,-0.5435,-0.5334,-0.5246,-0.5149,-0.4974,-0.5142,-0.5167,-0.5188,-0.5166,-0.4903,-0.4898,-0.4958,-0.4958,-0.4958,0,0,-0.5942,-0.6006,-0.5967,-0.6121,-0.6101,-0.6006,-0.6014,-0.5922,-0.5803,-0.5756,-0.5532,-0.5481,-0.5427,-0.5287,-0.5251,-0.5165,-0.506,-0.5061,-0.5226,-0.5254,-0.5279,-0.5279,-0.505,0,0,0,0,0,-0.5874,-0.6015,-0.5981,-0.6,-0.6012,-0.6034,-0.6014,-0.5903,-0.5797,-0.5824,-0.5652,-0.5501,-0.5251,-0.5214,-0.5164,-0.5174,-0.4896,-0.4907,-0.4918,-0.5113,-0.5145,-0.5173,0,0,0,0,0,0,-0.5882,-0.5913,-0.5975,-0.5911,-0.591,-0.6028,-0.5872,-0.5839,-0.5795,-0.5777,-0.5538,-0.5494,-0.5344,-0.5223,-0.5182,-0.5196,-0.5063,-0.4901,-0.491,-0.4918,-0.5124,-0.5151,-0.5174,0,0,0,0,0,-0.5887,-0.5912,-0.6002,-0.59,-0.59,-0.5783,-0.5869,-0.5841,-0.578,-0.5578,-0.5533,-0.5708,-0.5349,-0.5301,-0.5198,-0.522,-0.509,-0.5075,-0.4907,-0.4914,-0.4921,-0.5137,0,0,0,0,0,0,-0.5891,-0.5816,-0.5994,-0.5982,-0.5891,-0.5771,-0.5764,-0.5844,-0.5576,-0.554,-0.5738,-0.5727,-0.5352,-0.5314,-0.5279,-0.5241,-0.5112,-0.5097,-0.5088,-0.4912,-0.4918,-0.4923,0,0,0,0,0,0,-0.5802,-0.5809,-0.5987,-0.5983,-0.5969,-0.5761,-0.5756,-0.5614,-0.557,-0.5743,-0.5731,-0.5735,-0.5383,-0.5324,-0.5296,-0.5076,-0.5129,-0.5115,-0.5105,-0.5099,-0.4917,-0.4921,0,0,0,0,0,0,-0.5799,-0.5804,-0.5984,-0.5973,-0.596,-0.5806,-0.5619,-0.5614,-0.5657,-0.5751,-0.5651,-0.5649,-0.5394,-0.5363,-0.5308,-0.5102,-0.5083,-0.5128,-0.5119,-0.5112,-0.5107,0,0,0,0,0,0,0,-0.5796,-0.5836,-0.6086,-0.5965,-0.5953,-0.588,-0.5875,-0.5869,-0.5656,-0.5654,-0.5652,-0.565,-0.521,-0.5194,-0.5179,-0.5123,0,0,-0.513,-0.5123,0,0,0,0,0,0,0,0,-0.5826,-0.5834,-0.6086,-0.6085,-0.6084,-0.5879,-0.5875,-0.587,-0.5656,-0.5654,-0.5652,-0.5651,-0.5206,-0.5193,-0.518,0,0,0,0,0,0,0,0,0,0,0,0,0,0,0,-0.6086,-0.6085,0,-0.5879,-0.5875,-0.5871,-0.5656,-0.5654,-0.5653,-0.5652,-0.5202,-0.5192,-0.5181,0,0,0,0,0,0,0,0,0,0,0,0,0,0,0,0,0,0,0,0,0,0,0,0,0,0,0,0,0,0,0,0,0,0,0,0,0,0,0,0,0,0,0,0,0,0,0,0,0,0,0,0,0,0,0,0,0,0,0,0,0,0,0,0,0,0,0,0,0]}],[{"header":{"parameterUnit":"kt","parameterCategory":2,"dx":1,"dy":1,"la1":30.253999710083008,"la2":30.299108505249023,"lo1":-89.0895004272461,"lo2":-89.04439544677734,"nx":28,"ny":28,"refTime":"2022-10-16T21:00:00:Z","depth":"0","parameterNumber":3,"parameterNumberName":"V-component_of_CURRENTS"},"data":[-0.0942,-0.0395,-0.0176,0.0381,0.0583,0.0974,0.1135,0.1369,0.1672,0.2375,0.2872,0.3233,0.333,0.3451,0.3576,0.3626,0.3967,0.3822,0.3934,0.3704,0.3661,0.362,0.3646,0.4038,0.4039,0.4635,0.464,0.4645,-0.1228,-0.0914,-0.0578,-0.0086,0.0168,0.018,0.0493,0.0748,0.116,0.1595,0.2031,0.2624,0.2724,0.268,0.2704,0.2897,0.3024,0.3013,0.3262,0.3379,0.2797,0.2793,0.301,0.3009,0.3009,0.3009,0.3008,0.3008,-0.1676,-0.1387,-0.0987,-0.0592,-0.0362,-0.011,0.0165,0.0387,0.0778,0.1245,0.1362,0.1772,0.1893,0.1925,0.1937,0.2096,0.2067,0.2417,0.2493,0.251,0.2653,0.1728,0.1966,0.1965,0.1963,0.1961,0.196,0,-0.1859,-0.1678,-0.1406,-0.1015,-0.0753,-0.0438,-0.0168,0.002,0.0319,0.0616,0.095,0.1143,0.1188,0.1433,0.1416,0.161,0.1979,0.1771,0.2054,0.2569,0.2466,0.267,0.1919,0.2186,0.2185,0.2184,0.2184,0.2183,-0.1892,-0.1824,-0.1408,-0.1211,-0.108,-0.0802,-0.0557,-0.0312,-0.0061,0.0278,0.0473,0.0596,0.0868,0.1098,0.1249,0.1483,0.1687,0.1746,0.1923,0.2023,0.2157,0.2175,0.23,0.2175,0.2176,0.2177,0.2177,0,-0.181,-0.1735,-0.1535,-0.1254,-0.1151,-0.0975,-0.0592,-0.0351,-0.0168,0.0244,0.0345,0.0569,0.0732,0.087,0.1247,0.1375,0.1783,0.1656,0.1611,0.1684,0.2014,0.2071,0.2427,0.2598,0.1822,0.182,0.1818,0,-0.1657,-0.1598,-0.136,-0.1314,-0.1088,-0.0968,-0.0686,-0.0499,-0.0172,0.0165,0.031,0.0562,0.0833,0.0996,0.1179,0.1362,0.1507,0.159,0.1672,0.179,0.1778,0.2172,0.2256,0.1915,0.1914,0.1913,0.1913,0,-0.1468,-0.1364,-0.131,-0.1254,-0.0989,-0.0917,-0.0784,-0.047,-0.0249,0.0086,0.0295,0.0594,0.0731,0.102,0.1114,0.1177,0.1458,0.1632,0.162,0.1605,0.1913,0.1913,0.227,0.1911,0.1911,0.1911,0.191,0,-0.1312,-0.1222,-0.1215,-0.0966,-0.0916,-0.088,-0.0568,-0.0482,-0.0137,0.0048,0.0288,0.051,0.0678,0.0707,0.1031,0.0959,0.1115,0.1257,0.1272,0.1276,0.1329,0.1568,0.1594,0.1861,0.1373,0.1369,0.1366,0,-0.1124,-0.1108,-0.0997,-0.0957,-0.0899,-0.0691,-0.0621,-0.0419,-0.0229,0.002,0.021,0.0437,0.0409,0.0548,0.067,0.0921,0.1014,0.0866,0.141,0.1421,0.128,0.1257,0.1407,0.1532,0.1318,0.1323,0.1327,0,-0.0962,-0.0803,-0.0807,-0.0736,-0.0598,-0.0481,-0.0469,-0.0275,-0.0131,-0.0016,0.0192,0.0275,0.0469,0.0572,0.0703,0.0837,0.0923,0.0958,0.0977,0.098,0.1356,0.1204,0.122,0.1142,0.1149,0.1154,0.1289,0,-0.0726,-0.0686,-0.068,-0.0598,-0.0496,-0.0446,-0.0284,-0.0189,-0.0078,0.0076,0.0274,0.0439,0.0673,0.0657,0.0726,0.0874,0.092,0.1067,0.1176,0.1144,0.1192,0.122,0.0962,0.0967,0.0971,0.0975,0,0,-0.06,-0.0555,-0.0367,-0.0357,-0.0283,-0.0076,-0.0074,0.0022,0.0223,0.0335,0.0316,0.067,0.0766,0.0929,0.0844,0.0941,0.1075,0.0965,0.1125,0.1139,0.1155,0.1201,0.1223,0.0982,0.0984,0.0985,0.0986,0,-0.0503,-0.0372,-0.0382,-0.0283,-0.0135,-0.0015,0.0001,0.0189,0.0244,0.0366,0.0489,0.0612,0.0829,0.092,0.1001,0.0992,0.1168,0.101,0.0906,0.115,0.1159,0.1169,0.1214,0.1231,0.0997,0.0996,0.0996,0,-0.0388,-0.0278,-0.0255,-0.0085,0.002,0.0062,0.0204,0.0294,0.0309,0.0545,0.0604,0.0755,0.0938,0.1018,0.1073,0.1119,0.1277,0.1211,0.1193,0.123,0.1494,0.1501,0.1507,0.1432,0.1432,0.1432,0,0,-0.0328,-0.0273,-0.0095,-0.0058,0.0,0.0175,0.0251,0.0315,0.0459,0.0511,0.0651,0.0793,0.0914,0.0988,0.1126,0.1262,0.1412,0.1251,0.1231,0.1213,0.1238,0.1495,0.1501,0.1433,0.1433,0.1433,0,0,-0.031,-0.0135,-0.0088,-0.0029,0.0094,0.029,0.0324,0.0415,0.0549,0.0538,0.0715,0.0758,0.0854,0.0995,0.0985,0.1104,0.1202,0.1213,0.0979,0.0958,0.0938,0.0918,0.1062,0,0,0,0,0,-0.016,-0.0147,-0.0106,-0.0076,0.0141,0.0287,0.0324,0.0409,0.0434,0.0452,0.0584,0.066,0.0978,0.0974,0.1036,0.0985,0.1444,0.1442,0.144,0.1176,0.115,0.1128,0,0,0,0,0,0,-0.0147,-0.0114,-0.0104,0.0084,0.0135,0.0287,0.0315,0.0343,0.0428,0.0426,0.0637,0.0668,0.077,0.0954,0.1007,0.0953,0.1044,0.1443,0.1442,0.144,0.1167,0.1146,0.1128,0,0,0,0,0,-0.0136,-0.0109,0.0184,0.0088,0.0132,0.027,0.031,0.0333,0.04,0.0592,0.0622,0.0445,0.0771,0.0822,0.0987,0.0922,0.1009,0.1028,0.1442,0.1441,0.144,0.1157,0,0,0,0,0,0,-0.0128,-0.0051,0.0199,0.022,0.0024,0.0261,0.0289,0.0323,0.0563,0.0592,0.0408,0.0405,0.0774,0.0813,0.0851,0.0898,0.0979,0.0999,0.1011,0.1441,0.144,0.1439,0,0,0,0,0,0,-0.0065,-0.0035,0.021,0.0124,0.0137,0.0253,0.0277,0.0495,0.0566,0.0368,0.0371,0.0404,0.0715,0.0807,0.0837,0.1177,0.0957,0.0976,0.0989,0.0997,0.1441,0.144,0,0,0,0,0,0,-0.0049,-0.0022,0.012,0.013,0.0141,0.0394,0.0452,0.0667,0.0481,0.0357,0.0466,0.046,0.0709,0.0741,0.0828,0.1154,0.1171,0.0958,0.097,0.098,0.0986,0,0,0,0,0,0,0,-0.0035,-0.0262,0.0063,0.0134,0.0144,0.0418,0.0425,0.0431,0.0479,0.0473,0.0468,0.0462,0.085,0.0871,0.0891,0.1136,0,0,0.0956,0.0965,0,0,0,0,0,0,0,0,-0.0268,-0.0263,0.0064,0.0068,0.0072,0.0419,0.0425,0.043,0.0478,0.0474,0.0469,0.0465,0.0856,0.0872,0.0889,0,0,0,0,0,0,0,0,0,0,0,0,0,0,0,0.0064,0.0068,0,0.042,0.0424,0.0429,0.0478,0.0474,0.047,0.0466,0.086,0.0874,0.0888,0,0,0,0,0,0,0,0,0,0,0,0,0,0,0,0,0,0,0,0,0,0,0,0,0,0,0,0,0,0,0,0,0,0,0,0,0,0,0,0,0,0,0,0,0,0,0,0,0,0,0,0,0,0,0,0,0,0,0,0,0,0,0,0,0,0,0,0,0]}]],[[{"header":{"parameterUnit":"kt","parameterCategory":2,"dx":1,"dy":1,"la1":30.253999710083008,"la2":30.299108505249023,"lo1":-89.0895004272461,"lo2":-89.04439544677734,"nx":28,"ny":28,"refTime":"2022-10-16T21:00:00:Z","depth":"2","parameterNumber":2,"parameterNumberName":"U-component_of_CURRENTS"},"data":[-0.2838,-0.2679,-0.265,-0.2413,-0.2401,-0.2201,-0.2169,-0.2144,-0.216,-0.21,-0.2061,-0.2279,-0.2124,-0.1699,-0.1501,-0.1203,-0.1494,-0.1131,-0.184,-0.2075,-0.2144,-0.2274,-0.2432,0,0,0,0,0,-0.3009,-0.3018,-0.296,-0.2986,-0.2859,-0.2997,-0.2988,-0.2902,-0.2846,-0.2911,-0.2903,-0.255,-0.2249,-0.2091,-0.1671,-0.1575,-0.1646,-0.1533,-0.1662,-0.1739,-0.1808,-0.186,-0.1049,-0.1047,-0.1045,-0.1043,0,0,-0.341,-0.337,-0.3416,-0.3385,-0.3435,-0.3395,-0.332,-0.3425,-0.3385,-0.335,-0.3469,-0.3249,-0.3114,-0.2577,-0.2348,-0.2172,-0.2425,-0.2399,-0.2434,-0.2478,-0.255,-0.2609,-0.1931,-0.1935,-0.1938,-0.1941,-0.1944,0,-0.3711,-0.3778,-0.3813,-0.3831,-0.3889,-0.387,-0.3938,-0.3905,-0.4086,-0.404,-0.3954,-0.3843,-0.3476,-0.3162,-0.2882,-0.2775,-0.3092,-0.2832,-0.3435,-0.316,-0.323,-0.3249,-0.3331,-0.2658,-0.2666,-0.2672,-0.2677,-0.268,-0.4041,-0.4046,-0.4218,-0.4249,-0.4335,-0.4386,-0.4393,-0.4607,-0.4571,-0.455,-0.4429,-0.4242,-0.4113,-0.3699,-0.3607,-0.3388,-0.3648,-0.3027,-0.3245,-0.3953,-0.3959,-0.4021,-0.4078,-0.2767,-0.2756,-0.2747,-0.274,0,-0.4161,-0.4409,-0.4451,-0.467,-0.4721,-0.4722,-0.4832,-0.4777,-0.4924,-0.4792,-0.4795,-0.4837,-0.4622,-0.4581,-0.4324,-0.4297,-0.4063,-0.3924,-0.3747,-0.3672,-0.4099,-0.4147,-0.3509,-0.3499,-0.3491,-0.3484,-0.3478,0,-0.4456,-0.4496,-0.4774,-0.4801,-0.4822,-0.5067,-0.5034,-0.5198,-0.5259,-0.5168,-0.5352,-0.5205,-0.525,-0.5031,-0.5019,-0.4662,-0.4637,-0.4552,-0.4489,-0.4324,-0.4305,-0.4887,-0.4925,-0.4607,-0.4611,-0.4615,-0.4618,0,-0.4537,-0.4778,-0.4865,-0.4953,-0.5187,-0.5265,-0.5375,-0.5548,-0.5577,-0.5648,-0.5576,-0.5531,-0.5407,-0.5283,-0.522,-0.5363,-0.4829,-0.4981,-0.4688,-0.468,-0.4295,-0.4267,-0.4623,-0.4623,-0.4624,-0.4626,-0.4627,0,-0.4738,-0.4895,-0.5028,-0.5197,-0.5225,-0.5342,-0.5491,-0.564,-0.5757,-0.5859,-0.5828,-0.5848,-0.5755,-0.5852,-0.5565,-0.5744,-0.5608,-0.5522,-0.55,-0.5291,-0.5372,-0.4672,-0.4387,-0.5311,-0.5318,-0.5324,-0.533,0,-0.4777,-0.4993,-0.5134,-0.5261,-0.5335,-0.5541,-0.5721,-0.5885,-0.6021,-0.6047,-0.6088,-0.6104,-0.6249,-0.6206,-0.6108,-0.6025,-0.5843,-0.6113,-0.5617,-0.56,-0.5439,-0.5262,-0.4999,-0.4517,-0.5415,-0.5406,-0.5399,0,-0.4789,-0.5059,-0.5081,-0.5127,-0.5424,-0.5496,-0.5752,-0.589,-0.593,-0.6138,-0.6124,-0.6322,-0.6239,-0.6279,-0.632,-0.6197,-0.5981,-0.6226,-0.6214,-0.597,-0.5525,-0.5398,-0.5328,-0.5986,-0.5977,-0.597,-0.5466,0,-0.4948,-0.5016,-0.5092,-0.5263,-0.5386,-0.5501,-0.5698,-0.5839,-0.6002,-0.6079,-0.6186,-0.6262,-0.6286,-0.6387,-0.6474,-0.6364,-0.6334,-0.6356,-0.6251,-0.624,-0.6037,-0.5984,-0.6581,-0.6579,-0.6578,-0.6577,0,0,-0.4894,-0.4943,-0.5056,-0.519,-0.5294,-0.5436,-0.5513,-0.5667,-0.5899,-0.5946,-0.6094,-0.6199,-0.6313,-0.6334,-0.6443,-0.6489,-0.6363,-0.6462,-0.6317,-0.629,-0.6263,-0.6064,-0.6016,-0.6576,-0.6575,-0.6575,-0.6574,0,-0.4922,-0.4952,-0.5005,-0.5129,-0.5316,-0.5391,-0.5466,-0.5631,-0.5789,-0.5954,-0.6056,-0.6129,-0.632,-0.6352,-0.6402,-0.6478,-0.6357,-0.6577,-0.6517,-0.6318,-0.6292,-0.6268,-0.6069,-0.6026,-0.6572,-0.6572,-0.6572,0,-0.4886,-0.5011,-0.5013,-0.5154,-0.5235,-0.5334,-0.5432,-0.5596,-0.5746,-0.5796,-0.603,-0.6093,-0.6186,-0.6304,-0.6378,-0.6347,-0.6282,-0.6426,-0.6433,-0.6334,-0.6118,-0.6093,-0.6071,-0.633,-0.633,-0.6329,0,0,-0.4931,-0.4995,-0.5105,-0.5161,-0.5206,-0.534,-0.5428,-0.5561,-0.5721,-0.5809,-0.5936,-0.6056,-0.616,-0.6238,-0.6312,-0.6341,-0.6179,-0.6396,-0.6407,-0.6416,-0.6325,-0.6113,-0.6092,-0.6325,-0.6325,-0.6325,0,0,-0.4987,-0.5115,-0.5111,-0.5163,-0.5294,-0.5445,-0.5534,-0.5637,-0.579,-0.5844,-0.5961,-0.6007,-0.6188,-0.619,-0.6143,-0.6312,-0.6268,-0.6276,-0.6304,-0.6318,-0.6329,-0.621,-0.6174,0,0,0,0,0,-0.5051,-0.5071,-0.506,-0.5085,-0.5198,-0.5362,-0.5384,-0.5605,-0.5692,-0.5778,-0.5927,-0.5956,-0.6231,-0.6189,-0.6188,-0.625,-0.6281,-0.6289,-0.6297,-0.6342,-0.6358,-0.637,0,0,0,0,0,0,-0.5062,-0.508,-0.5066,-0.5192,-0.5226,-0.5355,-0.5472,-0.5522,-0.5699,-0.5745,-0.5914,-0.5952,-0.6012,-0.6189,-0.6188,-0.6248,-0.6175,-0.6285,-0.6291,-0.6297,-0.6348,-0.636,-0.6371,0,0,0,0,0,-0.5071,-0.5088,-0.5225,-0.5194,-0.5222,-0.5493,-0.5481,-0.5527,-0.5674,-0.5796,-0.5846,-0.588,-0.5999,-0.602,-0.6188,-0.625,-0.6175,-0.6175,-0.6289,-0.6294,-0.6299,-0.6354,0,0,0,0,0,0,-0.5079,-0.5066,-0.5234,-0.5252,-0.5323,-0.5501,-0.5535,-0.5529,-0.572,-0.5771,-0.5753,-0.5783,-0.5987,-0.6006,-0.602,-0.6253,-0.6175,-0.6175,-0.6175,-0.6293,-0.6297,-0.63,0,0,0,0,0,0,-0.5063,-0.5076,-0.5241,-0.5391,-0.5426,-0.5507,-0.5538,-0.5491,-0.572,-0.5659,-0.5695,-0.5765,-0.6024,-0.5993,-0.6006,-0.5917,-0.6176,-0.6175,-0.6175,-0.6175,-0.6296,-0.6299,0,0,0,0,0,0,-0.5073,-0.5084,-0.5385,-0.5411,-0.5443,-0.5628,-0.547,-0.5591,-0.5805,-0.5643,-0.5842,-0.5859,-0.6009,-0.6024,-0.5995,-0.5898,-0.5912,-0.6176,-0.6175,-0.6175,-0.6175,0,0,0,0,0,0,0,-0.508,-0.4952,-0.5172,-0.5429,-0.5456,-0.5422,-0.5423,-0.5423,-0.5809,-0.5824,-0.5838,-0.5852,-0.6177,-0.6177,-0.6176,-0.5882,0,0,-0.6176,-0.6176,0,0,0,0,0,0,0,0,-0.4952,-0.4952,-0.5173,-0.5179,-0.5184,-0.5422,-0.5423,-0.5423,-0.5811,-0.5823,-0.5835,-0.5846,-0.6177,-0.6177,-0.6176,0,0,0,0,0,0,0,0,0,0,0,0,0,0,0,-0.5173,-0.5178,0,-0.5422,-0.5423,-0.5423,-0.5813,-0.5823,-0.5833,-0.5842,-0.6177,-0.6177,-0.6176,0,0,0,0,0,0,0,0,0,0,0,0,0,0,0,0,0,0,0,0,0,0,0,0,0,0,0,0,0,0,0,0,0,0,0,0,0,0,0,0,0,0,0,0,0,0,0,0,0,0,0,0,0,0,0,0,0,0,0,0,0,0,0,0,0,0,0,0,0]}],[{"header":{"parameterUnit":"kt","parameterCategory":2,"dx":1,"dy":1,"la1":30.253999710083008,"la2":30.299108505249023,"lo1":-89.0895004272461,"lo2":-89.04439544677734,"nx":28,"ny":28,"refTime":"2022-10-16T21:00:00:Z","depth":"2","parameterNumber":3,"parameterNumberName":"V-component_of_CURRENTS"},"data":[-0.1875,-0.1903,-0.1928,-0.1947,-0.1963,-0.1934,-0.1886,-0.1727,-0.1471,-0.1103,-0.0759,-0.038,0.0172,0.0475,0.0812,0.1071,0.1058,0.1071,0.1038,0.0936,0.0928,0.1146,0.13,0,0,0,0,0,-0.1882,-0.1907,-0.1937,-0.194,-0.1943,-0.1917,-0.1834,-0.1739,-0.1571,-0.1225,-0.0927,-0.0449,0.0068,0.0526,0.1,0.1256,0.1241,0.126,0.1209,0.1204,0.1199,0.1304,0.1252,0.1253,0.1253,0.1254,0,0,-0.187,-0.1899,-0.1895,-0.191,-0.1898,-0.1864,-0.1819,-0.1694,-0.1535,-0.1217,-0.101,-0.0577,-0.013,0.0544,0.0845,0.1119,0.1131,0.1196,0.1192,0.1188,0.1292,0.1234,0.1238,0.1239,0.1239,0.1239,0.1239,0,-0.1837,-0.1832,-0.1832,-0.1847,-0.1823,-0.1785,-0.1686,-0.1629,-0.1352,-0.1183,-0.0881,-0.0616,-0.0128,0.0344,0.0741,0.0937,0.1053,0.1096,0.1056,0.1215,0.1141,0.1159,0.1162,0.1124,0.1123,0.1123,0.1123,0.1122,-0.1771,-0.1785,-0.1756,-0.1756,-0.1723,-0.1661,-0.1594,-0.1359,-0.1211,-0.0882,-0.0804,-0.0497,-0.0145,0.027,0.0678,0.0974,0.1038,0.1075,0.1232,0.1161,0.118,0.1183,0.1187,0.1117,0.1118,0.1118,0.1119,0,-0.1722,-0.1692,-0.1694,-0.1603,-0.1581,-0.1551,-0.1381,-0.1249,-0.0991,-0.0768,-0.0679,-0.0242,0.0038,0.0357,0.0655,0.0849,0.1065,0.1132,0.1031,0.1048,0.1176,0.1181,0.1142,0.1144,0.1145,0.1147,0.1148,0,-0.1626,-0.1628,-0.1586,-0.1558,-0.1532,-0.1381,-0.1244,-0.1016,-0.0733,-0.0541,-0.0162,0.003,0.0412,0.0595,0.0821,0.1039,0.1003,0.125,0.1267,0.1255,0.1257,0.1226,0.1225,0.1255,0.1257,0.1259,0.126,0,-0.1573,-0.1526,-0.153,-0.1471,-0.1328,-0.1238,-0.1135,-0.0765,-0.057,-0.0181,-0.0075,0.0316,0.0454,0.0651,0.0951,0.0993,0.1113,0.1188,0.1286,0.1283,0.1231,0.1227,0.1262,0.1263,0.1263,0.1264,0.1265,0,-0.1474,-0.1456,-0.1444,-0.1336,-0.1308,-0.1236,-0.0942,-0.0752,-0.0342,-0.0119,0.0191,0.0411,0.0739,0.083,0.1101,0.1113,0.1193,0.1291,0.1286,0.1316,0.1347,0.113,0.1186,0.1181,0.1182,0.1183,0.1183,0,-0.1407,-0.1398,-0.133,-0.1277,-0.1252,-0.1035,-0.0848,-0.0582,-0.0313,-0.0075,0.0293,0.0552,0.0763,0.0903,0.108,0.1257,0.1324,0.1373,0.1283,0.1276,0.1313,0.1397,0.1385,0.1197,0.1194,0.1193,0.1192,0,-0.135,-0.1293,-0.1284,-0.1252,-0.1078,-0.1023,-0.0793,-0.0544,-0.036,-0.0097,0.0137,0.0602,0.0706,0.0895,0.1141,0.1278,0.133,0.13,0.1301,0.1164,0.1318,0.1394,0.1393,0.1424,0.1425,0.1426,0.12,0,-0.1203,-0.1211,-0.1217,-0.1144,-0.1059,-0.1006,-0.0771,-0.0634,-0.0434,-0.0235,0.0107,0.0356,0.0648,0.0838,0.1,0.1253,0.1168,0.1236,0.1225,0.1307,0.1192,0.1186,0.1232,0.123,0.1229,0.1228,0,0,-0.1129,-0.1171,-0.1114,-0.1078,-0.098,-0.0828,-0.079,-0.0626,-0.0392,-0.0236,-0.0154,0.0285,0.0519,0.09,0.1026,0.1081,0.1032,0.1145,0.128,0.1286,0.1292,0.1187,0.1183,0.1225,0.1225,0.1224,0.1224,0,-0.1087,-0.1084,-0.1131,-0.1036,-0.09,-0.0817,-0.0768,-0.0609,-0.042,-0.0263,-0.0024,0.022,0.0476,0.0749,0.092,0.1039,0.1062,0.115,0.1211,0.1269,0.1277,0.1284,0.1182,0.118,0.1221,0.1221,0.1221,0,-0.0999,-0.0944,-0.0964,-0.0892,-0.0818,-0.0756,-0.0591,-0.05,-0.0345,-0.0187,0.0042,0.0202,0.0458,0.0686,0.0809,0.0823,0.1045,0.1055,0.1064,0.1,0.1053,0.1064,0.1073,0.0943,0.0942,0.0941,0,0,-0.095,-0.0985,-0.0849,-0.0866,-0.0829,-0.0668,-0.0599,-0.0457,-0.0291,-0.0205,-0.0008,0.0213,0.0432,0.0591,0.0711,0.0854,0.0802,0.1021,0.1034,0.1045,0.0989,0.1044,0.1055,0.0937,0.0937,0.0937,0,0,-0.0881,-0.0792,-0.0743,-0.077,-0.065,-0.0499,-0.0463,-0.0324,-0.0172,-0.0115,0.0131,0.0199,0.0434,0.0514,0.0443,0.0841,0.0787,0.0799,0.0827,0.0844,0.0857,0.0767,0.0627,0,0,0,0,0,-0.0772,-0.0833,-0.0795,-0.0775,-0.0686,-0.0587,-0.0567,-0.0328,-0.0201,-0.0169,0.0036,0.0176,0.0575,0.0513,0.0537,0.0732,0.089,0.0899,0.0907,0.097,0.0987,0.1001,0,0,0,0,0,0,-0.0763,-0.0754,-0.0787,-0.0661,-0.0631,-0.0589,-0.0395,-0.0341,-0.0191,-0.0143,0.0115,0.0176,0.0321,0.0511,0.053,0.0717,0.062,0.0894,0.0901,0.0907,0.0975,0.099,0.1002,0,0,0,0,0,-0.0755,-0.0746,-0.0658,-0.0657,-0.0632,-0.0347,-0.0385,-0.0336,-0.0219,0.0021,0.0089,-0.0004,0.0305,0.035,0.0523,0.0709,0.0608,0.0615,0.0898,0.0904,0.0909,0.0982,0,0,0,0,0,0,-0.0748,-0.0764,-0.0648,-0.0629,-0.0516,-0.0336,-0.0304,-0.0333,-0.0057,0.0007,-0.0095,-0.0062,0.0291,0.0329,0.036,0.0706,0.0598,0.0605,0.0609,0.0902,0.0907,0.0911,0,0,0,0,0,0,-0.0762,-0.0754,-0.064,-0.0478,-0.0441,-0.0328,-0.0298,-0.0275,-0.0052,-0.0194,-0.0155,-0.0081,0.0347,0.0311,0.0338,0.0353,0.059,0.0596,0.0601,0.0604,0.0906,0.0909,0,0,0,0,0,0,-0.0753,-0.0746,-0.0484,-0.0456,-0.0423,-0.0229,-0.0296,-0.0175,-0.0039,-0.0211,0.0001,0.0019,0.033,0.0356,0.032,0.0321,0.0345,0.059,0.0594,0.0598,0.06,0,0,0,0,0,0,0,-0.0746,-0.0861,-0.0713,-0.0438,-0.0408,-0.0451,-0.045,-0.045,-0.0035,-0.0019,-0.0003,0.0011,0.0552,0.0559,0.0567,0.0295,0,0,0.0589,0.0593,0,0,0,0,0,0,0,0,-0.0858,-0.086,-0.0712,-0.0705,-0.0699,-0.0451,-0.045,-0.045,-0.0032,-0.002,-0.0007,0.0005,0.0554,0.056,0.0566,0,0,0,0,0,0,0,0,0,0,0,0,0,0,0,-0.0711,-0.0706,0,-0.0451,-0.045,-0.045,-0.0031,-0.002,-0.001,0.0,0.0556,0.0561,0.0565,0,0,0,0,0,0,0,0,0,0,0,0,0,0,0,0,0,0,0,0,0,0,0,0,0,0,0,0,0,0,0,0,0,0,0,0,0,0,0,0,0,0,0,0,0,0,0,0,0,0,0,0,0,0,0,0,0,0,0,0,0,0,0,0,0,0,0,0,0]}]],[[{"header":{"parameterUnit":"kt","parameterCategory":2,"dx":1,"dy":1,"la1":30.253999710083008,"la2":30.299108505249023,"lo1":-89.0895004272461,"lo2":-89.04439544677734,"nx":28,"ny":28,"refTime":"2022-10-16T21:00:00:Z","depth":"4","parameterNumber":2,"parameterNumberName":"U-component_of_CURRENTS"},"data":[-0.1711,-0.1724,-0.1694,-0.1644,-0.164,-0.1759,-0.1882,-0.2043,-0.2027,-0.2237,-0.2161,-0.232,-0.2195,-0.2382,-0.2105,-0.2101,-0.2161,-0.2146,-0.214,-0.2352,-0.2379,-0.2403,-0.2391,0,0,0,0,0,-0.1801,-0.1754,-0.1788,-0.1818,-0.195,-0.2009,-0.2217,-0.2331,-0.2528,-0.2475,-0.2568,-0.2495,-0.2364,-0.238,-0.2179,-0.2361,-0.2331,-0.2123,-0.2297,-0.2369,-0.2399,-0.2377,0,0,0,0,0,0,-0.1934,-0.1912,-0.1987,-0.2019,-0.2143,-0.2205,-0.2294,-0.2374,-0.2459,-0.2686,-0.2679,-0.2703,-0.2784,-0.2588,-0.25,-0.2364,-0.2348,-0.2307,-0.2338,-0.2367,-0.2335,-0.2294,-0.1971,0,0,0,0,0,-0.2031,-0.2113,-0.2137,-0.2217,-0.2304,-0.2377,-0.2488,-0.2528,-0.2691,-0.2853,-0.2864,-0.284,-0.2788,-0.2699,-0.2578,-0.2514,-0.2682,-0.2581,-0.2598,-0.2662,-0.2653,-0.2651,-0.2676,-0.2512,-0.2516,-0.2519,-0.252,0,-0.2147,-0.2184,-0.2307,-0.235,-0.2413,-0.2488,-0.2542,-0.2673,-0.2738,-0.292,-0.2959,-0.3036,-0.3038,-0.2841,-0.2871,-0.2726,-0.2726,-0.2659,-0.2728,-0.2703,-0.2689,-0.2708,-0.2724,-0.2544,-0.2542,-0.254,-0.2538,0,-0.2199,-0.2305,-0.236,-0.2461,-0.2497,-0.2519,-0.2674,-0.2704,-0.2806,-0.29,-0.2955,-0.3047,-0.3033,-0.3039,-0.3088,-0.2982,-0.2931,-0.2866,-0.3147,-0.3136,-0.2763,-0.277,-0.2584,-0.2575,-0.2568,-0.2561,-0.2556,0,-0.2293,-0.234,-0.2461,-0.2491,-0.2516,-0.2619,-0.2666,-0.2699,-0.2806,-0.2856,-0.2933,-0.2958,-0.3051,-0.309,-0.3136,-0.3041,-0.3132,-0.3027,-0.2991,-0.328,-0.3285,-0.3264,-0.3268,-0.3238,-0.3239,-0.324,-0.324,0,-0.231,-0.2433,-0.2492,-0.2532,-0.2635,-0.2677,-0.2742,-0.2805,-0.2869,-0.2916,-0.2981,-0.294,-0.3039,-0.304,-0.3189,-0.3228,-0.3245,-0.3277,-0.3062,-0.3048,-0.327,-0.3273,-0.3241,-0.3242,-0.3242,-0.3242,-0.3242,0,-0.2386,-0.2429,-0.2522,-0.2594,-0.2623,-0.2694,-0.2754,-0.2832,-0.29,-0.2937,-0.2941,-0.3014,-0.3094,-0.3158,-0.3201,-0.3234,-0.3286,-0.3361,-0.3357,-0.314,-0.3121,-0.3249,-0.3298,-0.3299,-0.33,-0.3301,-0.3302,0,-0.2364,-0.2449,-0.2519,-0.2614,-0.2665,-0.2758,-0.2814,-0.2886,-0.2966,-0.3021,-0.3059,-0.3137,-0.3184,-0.3245,-0.3265,-0.3414,-0.3393,-0.3433,-0.3354,-0.3351,-0.3102,-0.3091,-0.3417,-0.3315,-0.3313,-0.3312,-0.3311,0,-0.2339,-0.2461,-0.2482,-0.2524,-0.2662,-0.2697,-0.2803,-0.288,-0.2901,-0.3026,-0.3047,-0.3203,-0.3208,-0.3251,-0.3318,-0.3364,-0.3407,-0.3441,-0.3439,-0.3343,-0.335,-0.3134,-0.3105,-0.3421,-0.342,-0.3419,-0.332,0,-0.2378,-0.2443,-0.2468,-0.2563,-0.2621,-0.2689,-0.2785,-0.2864,-0.2954,-0.2999,-0.3081,-0.3173,-0.3226,-0.3317,-0.3398,-0.3445,-0.3438,-0.3442,-0.3365,-0.3427,-0.3383,-0.3376,-0.345,-0.345,-0.345,-0.3449,0,0,-0.2353,-0.2401,-0.2442,-0.2501,-0.2551,-0.264,-0.2704,-0.2768,-0.2901,-0.2923,-0.2975,-0.3131,-0.3228,-0.3256,-0.334,-0.3395,-0.3381,-0.3379,-0.3431,-0.3429,-0.3427,-0.3385,-0.3379,-0.3449,-0.3449,-0.3448,-0.3448,0,-0.2346,-0.2388,-0.2419,-0.2477,-0.2573,-0.2617,-0.2657,-0.2758,-0.2798,-0.2932,-0.2961,-0.3045,-0.3205,-0.3216,-0.3249,-0.3383,-0.3346,-0.3453,-0.3453,-0.3429,-0.3428,-0.3426,-0.3385,-0.3379,-0.3447,-0.3448,-0.3448,0,-0.2343,-0.238,-0.2395,-0.2475,-0.2524,-0.2591,-0.26,-0.2673,-0.2732,-0.2763,-0.2883,-0.2952,-0.3017,-0.3119,-0.318,-0.3151,-0.3281,-0.3297,-0.3302,-0.3279,-0.3251,-0.3252,-0.3253,-0.3222,-0.3221,-0.322,0,0,-0.2346,-0.2367,-0.2444,-0.248,-0.2517,-0.2584,-0.2625,-0.2654,-0.2718,-0.2747,-0.2816,-0.2898,-0.2971,-0.3017,-0.3093,-0.3205,-0.3167,-0.3264,-0.3275,-0.3283,-0.3265,-0.324,-0.3243,-0.3215,-0.3215,-0.3215,0,0,-0.2333,-0.2392,-0.2423,-0.2465,-0.2528,-0.2574,-0.2607,-0.2649,-0.2719,-0.2734,-0.2767,-0.2784,-0.2909,-0.2944,-0.2877,-0.3067,-0.3031,-0.3047,-0.3015,-0.3029,-0.304,-0.2988,-0.2831,0,0,0,0,0,-0.2366,-0.2388,-0.2417,-0.2434,-0.2513,-0.2574,-0.2586,-0.2609,-0.2631,-0.2653,-0.2716,-0.2707,-0.2905,-0.2845,-0.2869,-0.2925,-0.3154,-0.3165,-0.3175,-0.3164,-0.3179,-0.3191,0,0,0,0,0,0,-0.2373,-0.239,-0.2417,-0.2464,-0.2484,-0.2572,-0.2548,-0.2555,-0.2626,-0.2624,-0.2697,-0.2708,-0.2707,-0.2835,-0.2856,-0.2909,-0.2824,-0.3158,-0.3168,-0.3176,-0.3169,-0.3181,-0.3191,0,0,0,0,0,-0.2379,-0.2392,-0.2508,-0.2464,-0.2481,-0.253,-0.2545,-0.2551,-0.2606,-0.2647,-0.2657,-0.2627,-0.2707,-0.2728,-0.2847,-0.2898,-0.2809,-0.2817,-0.3164,-0.3172,-0.3178,-0.3175,0,0,0,0,0,0,-0.2383,-0.2389,-0.2512,-0.252,-0.2445,-0.2525,-0.2534,-0.2547,-0.2624,-0.2636,-0.2573,-0.2571,-0.2708,-0.2724,-0.274,-0.2894,-0.2797,-0.2805,-0.281,-0.317,-0.3176,-0.3181,0,0,0,0,0,0,-0.2384,-0.2395,-0.2516,-0.2491,-0.2495,-0.252,-0.2528,-0.2617,-0.2626,-0.2545,-0.2546,-0.2571,-0.2704,-0.2721,-0.2734,-0.287,-0.2788,-0.2796,-0.2801,-0.2804,-0.3174,-0.3179,0,0,0,0,0,0,-0.239,-0.2399,-0.2488,-0.2492,-0.2496,-0.2578,-0.2601,-0.2688,-0.2582,-0.2541,-0.2578,-0.2575,-0.2703,-0.2715,-0.273,-0.286,-0.2867,-0.2788,-0.2794,-0.2797,-0.28,0,0,0,0,0,0,0,-0.2394,-0.2314,-0.2476,-0.2493,-0.2496,-0.2595,-0.2596,-0.2597,-0.2582,-0.258,-0.2578,-0.2576,-0.2745,-0.2753,-0.2761,-0.2852,0,0,-0.2788,-0.2791,0,0,0,0,0,0,0,0,-0.2311,-0.2313,-0.2477,-0.2479,-0.2481,-0.2595,-0.2596,-0.2597,-0.2582,-0.258,-0.2579,-0.2577,-0.2747,-0.2754,-0.2761,0,0,0,0,0,0,0,0,0,0,0,0,0,0,0,-0.2477,-0.2479,0,-0.2595,-0.2596,-0.2597,-0.2581,-0.258,-0.2579,-0.2578,-0.2749,-0.2754,-0.276,0,0,0,0,0,0,0,0,0,0,0,0,0,0,0,0,0,0,0,0,0,0,0,0,0,0,0,0,0,0,0,0,0,0,0,0,0,0,0,0,0,0,0,0,0,0,0,0,0,0,0,0,0,0,0,0,0,0,0,0,0,0,0,0,0,0,0,0,0]}],[{"header":{"parameterUnit":"kt","parameterCategory":2,"dx":1,"dy":1,"la1":30.253999710083008,"la2":30.299108505249023,"lo1":-89.0895004272461,"lo2":-89.04439544677734,"nx":28,"ny":28,"refTime":"2022-10-16T21:00:00:Z","depth":"4","parameterNumber":3,"parameterNumberName":"V-component_of_CURRENTS"},"data":[-0.1264,-0.133,-0.136,-0.1433,-0.1487,-0.1548,-0.1533,-0.1459,-0.1317,-0.1169,-0.0916,-0.0767,-0.0333,-0.045,0.0097,0.0167,0.0045,0.0651,0.0654,0.0422,0.0403,0.0386,0.0151,0,0,0,0,0,-0.1268,-0.1307,-0.1377,-0.1444,-0.1519,-0.1561,-0.1544,-0.1517,-0.1402,-0.1186,-0.1091,-0.0757,-0.0324,-0.0096,0.0109,0.0198,0.0315,0.0436,0.0226,0.041,0.0389,0.0168,0,0,0,0,0,0,-0.1271,-0.1303,-0.1369,-0.1446,-0.1519,-0.1536,-0.1544,-0.1436,-0.1366,-0.1122,-0.0991,-0.0625,-0.0417,-0.0055,0.0183,0.0376,0.032,0.0259,0.0247,0.0229,0.0038,0.0029,0.0377,0,0,0,0,0,-0.1262,-0.13,-0.1339,-0.1439,-0.1487,-0.1527,-0.1539,-0.1495,-0.1398,-0.1326,-0.1004,-0.0758,-0.0384,-0.0136,0.0159,0.0306,0.0197,0.0367,0.0352,0.0048,0.0053,0.0073,0.004,0.0308,0.0305,0.0304,0.0303,0,-0.1243,-0.1281,-0.1359,-0.1399,-0.143,-0.1478,-0.1507,-0.1474,-0.1439,-0.1217,-0.1149,-0.0837,-0.0706,-0.0209,-0.0092,0.0191,0.018,0.0314,-0.001,0.0016,0.0048,0.0018,-0.001,0.0286,0.0287,0.0288,0.029,0,-0.1227,-0.1264,-0.1315,-0.136,-0.1389,-0.142,-0.1432,-0.1433,-0.137,-0.1301,-0.127,-0.1073,-0.08,-0.0642,-0.0385,-0.0332,-0.0123,-0.0004,-0.0195,-0.0155,-0.0028,-0.005,0.0257,0.0264,0.0269,0.0273,0.0277,0,-0.1207,-0.1245,-0.13,-0.1321,-0.1372,-0.1364,-0.1396,-0.1399,-0.1361,-0.1323,-0.1284,-0.1185,-0.1103,-0.0897,-0.0793,-0.0501,-0.052,-0.0414,-0.0349,-0.0645,-0.0661,-0.0604,-0.0619,-0.0518,-0.0521,-0.0524,-0.0527,0,-0.1182,-0.123,-0.128,-0.1287,-0.1313,-0.1334,-0.1346,-0.1351,-0.1345,-0.1321,-0.1277,-0.1248,-0.1146,-0.1065,-0.0856,-0.0954,-0.0592,-0.0694,-0.046,-0.0446,-0.0628,-0.0636,-0.053,-0.0531,-0.0532,-0.0533,-0.0534,0,-0.1159,-0.1195,-0.1251,-0.1267,-0.1276,-0.1296,-0.1313,-0.1326,-0.1319,-0.132,-0.1325,-0.1299,-0.1225,-0.1246,-0.1048,-0.1148,-0.1006,-0.0913,-0.0896,-0.0787,-0.0755,-0.0687,-0.0654,-0.0657,-0.0661,-0.0663,-0.0666,0,-0.1113,-0.1177,-0.1185,-0.1222,-0.1248,-0.1238,-0.1262,-0.1269,-0.1281,-0.1288,-0.1276,-0.1274,-0.1293,-0.1278,-0.1247,-0.1125,-0.1034,-0.1177,-0.0895,-0.0883,-0.0773,-0.0723,-0.1119,-0.0709,-0.0703,-0.0699,-0.0696,0,-0.1077,-0.1125,-0.1132,-0.114,-0.1153,-0.1167,-0.1199,-0.1214,-0.1223,-0.1265,-0.1269,-0.1289,-0.1276,-0.1269,-0.1248,-0.1205,-0.1078,-0.1181,-0.1176,-0.0978,-0.087,-0.078,-0.0744,-0.1127,-0.1126,-0.1124,-0.0726,0,-0.1023,-0.106,-0.1089,-0.1112,-0.1124,-0.1145,-0.1142,-0.117,-0.1187,-0.119,-0.1221,-0.1215,-0.1223,-0.1228,-0.1212,-0.1188,-0.1128,-0.1162,-0.1108,-0.1144,-0.0961,-0.0938,-0.1195,-0.1194,-0.1194,-0.1193,0,0,-0.0957,-0.101,-0.1024,-0.1049,-0.1054,-0.1039,-0.1061,-0.1077,-0.1103,-0.1114,-0.1121,-0.1164,-0.1141,-0.1142,-0.1163,-0.1173,-0.1102,-0.1156,-0.1152,-0.1148,-0.1144,-0.0972,-0.0951,-0.1192,-0.1192,-0.1191,-0.1191,0,-0.0931,-0.0968,-0.1011,-0.1014,-0.102,-0.1022,-0.1027,-0.1046,-0.1055,-0.1099,-0.1079,-0.1084,-0.1128,-0.1102,-0.1097,-0.1164,-0.1064,-0.1186,-0.1206,-0.1148,-0.1145,-0.1142,-0.0972,-0.0954,-0.1189,-0.1189,-0.1189,0,-0.0874,-0.0892,-0.0918,-0.0952,-0.0963,-0.0982,-0.096,-0.0985,-0.0997,-0.0976,-0.1026,-0.1027,-0.102,-0.1051,-0.1061,-0.1042,-0.1015,-0.1076,-0.1082,-0.1066,-0.1002,-0.1001,-0.1,-0.1006,-0.1005,-0.1004,0,0,-0.0847,-0.0892,-0.0893,-0.0942,-0.0951,-0.0952,-0.0968,-0.0959,-0.0974,-0.0985,-0.0989,-0.0997,-0.1001,-0.1003,-0.1012,-0.1044,-0.0965,-0.1053,-0.1061,-0.1068,-0.1057,-0.0996,-0.0996,-0.1001,-0.1001,-0.1001,0,0,-0.0827,-0.085,-0.0841,-0.0908,-0.0907,-0.0919,-0.0953,-0.0944,-0.0973,-0.0973,-0.095,-0.0947,-0.0971,-0.0966,-0.0934,-0.0983,-0.095,-0.0957,-0.0972,-0.0982,-0.0991,-0.0971,-0.087,0,0,0,0,0,-0.0786,-0.0846,-0.0837,-0.0847,-0.0902,-0.0923,-0.093,-0.0932,-0.0927,-0.0946,-0.0956,-0.0911,-0.0951,-0.0923,-0.0922,-0.0929,-0.0966,-0.0972,-0.0978,-0.1006,-0.1017,-0.1027,0,0,0,0,0,0,-0.0789,-0.0802,-0.0835,-0.085,-0.0862,-0.0923,-0.0901,-0.0904,-0.0924,-0.0922,-0.0917,-0.0911,-0.0891,-0.0919,-0.0919,-0.0927,-0.087,-0.0968,-0.0973,-0.0978,-0.101,-0.1019,-0.1027,0,0,0,0,0,-0.0792,-0.0802,-0.0891,-0.085,-0.086,-0.087,-0.09,-0.0902,-0.0926,-0.09,-0.0897,-0.0923,-0.0893,-0.089,-0.0919,-0.0928,-0.087,-0.087,-0.0972,-0.0976,-0.098,-0.1014,0,0,0,0,0,0,-0.0794,-0.0815,-0.0893,-0.0896,-0.0828,-0.0866,-0.0873,-0.09,-0.0903,-0.09,-0.0902,-0.09,-0.0894,-0.0892,-0.089,-0.093,-0.087,-0.087,-0.087,-0.0975,-0.0978,-0.0981,0,0,0,0,0,0,-0.0809,-0.0818,-0.0895,-0.0868,-0.0868,-0.0863,-0.0869,-0.0877,-0.0901,-0.0905,-0.0904,-0.0901,-0.087,-0.0894,-0.0892,-0.0906,-0.087,-0.087,-0.087,-0.087,-0.0978,-0.098,0,0,0,0,0,0,-0.0812,-0.082,-0.0868,-0.0868,-0.0868,-0.0905,-0.0867,-0.0912,-0.0917,-0.0904,-0.0912,-0.091,-0.087,-0.087,-0.0894,-0.0909,-0.0907,-0.087,-0.087,-0.087,-0.087,0,0,0,0,0,0,0,-0.0815,-0.0765,-0.0869,-0.0868,-0.0868,-0.092,-0.0921,-0.0923,-0.0917,-0.0915,-0.0913,-0.0911,-0.0869,-0.0869,-0.0869,-0.0911,0,0,-0.087,-0.087,0,0,0,0,0,0,0,0,-0.0761,-0.0764,-0.0869,-0.0869,-0.0869,-0.092,-0.0921,-0.0923,-0.0916,-0.0915,-0.0913,-0.0912,-0.0869,-0.0869,-0.0869,0,0,0,0,0,0,0,0,0,0,0,0,0,0,0,-0.0869,-0.0869,0,-0.092,-0.0921,-0.0922,-0.0916,-0.0915,-0.0913,-0.0912,-0.0869,-0.0869,-0.0869,0,0,0,0,0,0,0,0,0,0,0,0,0,0,0,0,0,0,0,0,0,0,0,0,0,0,0,0,0,0,0,0,0,0,0,0,0,0,0,0,0,0,0,0,0,0,0,0,0,0,0,0,0,0,0,0,0,0,0,0,0,0,0,0,0,0,0,0,0]}]]]